Date,TemperatureHighF,TemperatureAvgF,TemperatureLowF,DewpointHighF,DewpointAvgF,DewpointLowF,HumidityHigh,HumidityAvg,HumidityLow,PressureMaxIn,PressureMinIn,WindSpeedMaxMPH,WindSpeedAvgMPH,GustSpeedMaxMPH,PrecipitationSumIn
2014-1-1,49.2,35.0,24.0,29.8,25.8,19.1,90,71,43,30.43,30.21,9,0,9,0.00
2014-1-2,41.3,34.0,26.0,38.0,30.2,14.7,97,87,59,30.20,29.72,28,2,3,0.16
2014-1-3,32.5,23.2,17.4,15.1,8.4,4.6,79,54,34,30.53,29.93,23,4,23,0.00
2014-1-4,38.9,24.4,12.3,22.6,14.5,6.6,91,68,41,30.56,30.24,6,0,19,0.16
2014-1-5,38.6,34.9,30.3,37.8,32.3,19.6,98,91,57,30.33,29.81,5,0,0,0.09
2014-1-6,41.0,29.1,6.1,40.5,18.7,-8.4,98,67,44,30.33,29.72,31,7,31,0.08
2014-1-7,26.8,13.8,4.0,6.5,-4.3,-10.5,68,45,28,30.56,30.32,32,5,32,0.00
2014-1-8,46.2,25.3,8.8,16.2,10.8,4.1,88,58,26,30.67,30.52,8,0,8,0.00
2014-1-9,47.6,33.3,19.1,21.9,16.6,10.2,88,55,24,30.64,30.51,7,0,2,0.00
2014-1-10,43.7,39.1,33.3,42.9,36.4,21.1,98,91,48,30.54,30.13,3,0,0,0.66
2014-1-11,51.4,45.0,41.2,50.7,43.6,34.7,99,95,63,30.14,29.64,14,1,0,1.47
2014-1-12,57.8,46.1,34.1,35.2,30.1,26.5,84,55,31,30.19,29.83,23,3,11,0.00
2014-1-13,47.0,37.5,26.1,40.6,33.2,25.1,96,85,69,30.18,30.00,4,0,10,0.02
2014-1-14,54.7,41.2,30.9,42.1,35.1,28.5,97,81,38,30.01,29.86,5,0,0,0.15
2014-1-15,50.2,34.9,25.4,36.3,27.5,20.3,97,76,53,30.03,29.93,15,1,2,0.00
2014-1-16,45.1,33.1,22.4,21.8,16.8,9.9,84,54,26,30.11,29.96,7,1,0,0.00
2014-1-17,50.4,34.7,21.1,25.3,20.1,14.8,86,58,29,30.24,29.86,19,3,3,0.00
2014-1-18,39.2,29.9,21.9,18.4,12.5,7.2,62,49,34,30.15,29.87,19,4,17,0.00
2014-1-19,49.9,35.5,22.0,27.1,20.3,14.4,77,55,37,30.05,29.87,13,2,11,0.00
2014-1-20,66.6,43.9,24.7,27.4,21.5,16.7,76,45,19,29.98,29.73,9,1,9,0.00
2014-1-21,49.5,33.3,23.7,31.3,23.5,12.9,87,68,44,29.94,29.53,16,2,16,0.00
2014-1-22,34.5,24.5,15.6,14.6,4.1,-7.1,69,44,17,30.15,29.82,13,2,13,0.00
2014-1-23,34.7,25.8,16.0,10.0,4.8,-5.7,52,41,30,30.52,30.09,12,5,16,0.00
2014-1-24,29.5,16.8,5.0,-1.0,-5.3,-9.8,64,39,19,30.69,30.18,13,2,13,0.00
2014-1-25,40.0,32.3,11.4,22.2,13.4,-3.9,64,46,27,30.27,29.65,24,5,30,0.00
2014-1-26,54.2,39.6,26.4,27.9,13.3,6.4,61,36,16,29.99,29.75,31,3,32,0.00
2014-1-27,56.4,41.0,31.6,36.9,28.1,6.7,74,60,36,30.11,29.73,15,2,15,0.00
2014-1-28,31.3,25.4,18.4,17.0,4.9,-4.6,89,45,25,30.33,30.00,9,2,9,0.00
2014-1-29,33.1,18.5,12.3,13.8,10.0,-3.4,89,73,23,30.41,30.13,7,0,7,0.02
2014-1-30,37.4,13.5,3.0,13.2,5.6,0.4,90,74,33,30.48,30.19,7,0,1,0.01
2014-1-31,56.6,23.6,14.1,23.6,13.8,10.4,87,70,23,30.30,30.06,5,0,0,0.02
2014-2-1,56.4,31.9,21.7,36.9,22.5,18.5,90,72,28,30.31,30.04,6,0,0,0.00
2014-2-2,67.4,39.6,28.0,50.3,33.6,26.2,95,81,41,30.17,30.00,8,0,0,0.00
2014-2-3,61.6,54.1,43.3,58.4,49.7,34.5,98,86,50,30.26,29.84,19,2,17,0.33
2014-2-4,43.3,40.5,36.2,35.5,34.3,30.3,96,79,69,30.40,30.14,12,2,12,0.15
2014-2-5,59.6,42.1,33.8,48.4,36.9,26.4,97,84,43,30.17,29.86,21,2,16,0.15
2014-2-6,42.4,32.8,27.6,27.2,23.4,20.7,80,69,45,30.38,30.17,8,1,10,0.00
2014-2-7,49.9,33.8,27.1,32.5,26.6,23.5,88,76,46,30.40,30.26,11,0,4,0.00
2014-2-8,53.7,37.5,33.8,34.3,31.4,30.1,89,79,45,30.31,30.13,6,0,6,0.00
2014-2-9,59.2,37.8,30.1,38.5,31.8,28.0,94,80,44,30.20,29.98,14,1,14,0.00
2014-2-10,40.5,37.6,33.7,37.1,33.8,31.5,94,86,75,30.27,30.06,6,0,4,0.19
2014-2-11,39.1,32.7,24.5,32.2,27.4,17.7,94,82,49,30.42,30.26,11,1,11,0.00
2014-2-12,27.3,25.6,21.4,24.3,19.1,11.7,95,77,53,30.46,29.93,8,1,8,0.00
2014-2-13,43.4,30.7,25.5,34.7,27.4,20.7,97,89,49,29.93,29.62,21,2,3,0.48
2014-2-14,60.2,44.7,29.2,33.2,25.3,20.7,72,48,25,29.84,29.67,16,2,14,0.03
2014-2-15,45.7,39.4,26.5,35.9,27.4,12.5,82,63,33,30.11,29.58,25,5,25,0.00
2014-2-16,58.6,34.0,24.7,30.7,21.8,15.9,78,63,32,30.19,30.05,14,1,0,0.00
2014-2-17,49.4,37.1,30.4,33.3,27.8,23.7,88,70,42,30.38,30.18,10,1,10,0.00
2014-2-18,64.9,38.6,27.1,34.3,28.0,17.9,95,73,17,30.27,30.10,14,1,3,0.00
2014-2-19,73.5,47.4,38.7,56.9,40.1,32.5,97,79,32,30.10,29.94,18,1,0,0.09
2014-2-20,71.3,51.6,45.2,55.7,43.5,38.4,88,75,50,30.19,29.91,15,1,15,0.00
2014-2-21,64.7,58.2,40.2,57.6,45.2,10.4,91,67,13,30.06,29.80,19,5,19,0.55
2014-2-22,53.6,36.0,0.0,31.5,22.2,0.0,80,50,28,30.23,30.01,4,0,9,0.00
2014-2-23,70.8,53.2,28.4,33.8,29.6,23.9,100,46,19,30.11,29.89,13,1,13,4.65
2014-2-24,59.0,39.3,0.0,35.0,28.9,0.0,75,58,20,30.13,29.91,11,1,17,0.00
2014-7-16,77.5,69.0,61.9,56.9,54.2,53.1,76,60,47,1014.70,29.90,4,0,4,4.67
2014-7-17,86.8,71.3,57.6,60.0,56.1,51.5,92,62,35,30.11,29.97,9,0,9,0.00
2014-7-18,67.7,64.8,62.4,66.2,62.7,58.4,98,93,76,30.23,30.10,5,0,5,0.64
2014-7-19,69.3,65.6,62.9,67.3,64.3,61.8,98,96,91,30.18,30.12,1,0,2,0.36
2014-7-20,78.3,69.4,62.3,70.2,65.4,61.4,98,88,67,30.15,30.06,21,0,21,0.01
2014-7-21,75.8,71.9,69.0,71.7,69.8,67.8,98,93,85,30.17,30.08,7,0,7,0.01
2014-7-22,86.8,75.3,69.6,73.2,70.4,68.8,98,86,61,30.19,30.10,1,0,1,0.03
2014-7-23,90.5,75.5,66.6,72.7,69.4,66.2,99,83,47,30.14,29.96,10,0,10,0.00
2014-7-24,89.2,73.6,67.1,73.2,68.7,64.7,98,86,49,29.99,29.87,37,1,37,1.79
2014-7-25,88.5,75.0,66.5,72.0,67.9,65.9,99,81,50,30.09,29.98,6,0,6,0.00
2014-7-26,89.8,76.9,65.0,70.8,66.9,62.0,98,74,41,30.05,29.97,6,0,6,0.00
2014-7-27,91.3,78.5,69.8,74.5,69.3,65.0,93,75,47,30.01,29.80,16,1,16,0.12
2014-7-28,82.3,74.1,64.6,67.8,62.1,55.5,97,69,42,29.97,29.82,26,3,26,0.35
2014-7-29,81.3,70.2,57.2,62.5,56.9,52.8,94,66,40,30.03,29.92,44,1,44,0.01
2014-7-30,82.0,67.9,55.1,64.4,57.2,53.1,96,72,41,30.11,30.03,7,0,7,0.00
2014-7-31,69.5,64.8,59.7,66.5,62.5,58.3,97,92,84,30.17,30.08,4,0,4,0.21
2014-8-1,66.3,63.8,62.6,64.1,62.8,61.2,98,97,91,30.16,30.10,12,0,12,1.12
2014-8-2,76.6,68.3,63.3,67.4,65.0,62.7,99,90,70,30.15,30.07,6,0,6,0.03
2014-8-3,86.6,73.4,63.2,68.5,64.7,59.8,99,78,44,30.13,30.04,7,0,7,0.00
2014-8-4,85.6,73.5,67.1,69.0,65.7,62.6,95,78,50,30.13,30.04,8,0,8,0.00
2014-8-5,86.3,74.5,65.5,72.3,67.7,64.5,99,81,49,30.10,30.00,7,0,7,0.00
2014-8-6,88.3,74.1,61.5,70.2,65.7,60.9,98,78,48,30.06,29.96,7,0,7,0.00
2014-8-7,88.7,75.2,63.3,69.7,65.9,61.9,97,75,43,30.06,29.96,8,1,8,0.00
2014-8-8,76.7,70.3,64.5,72.5,68.0,63.6,98,92,82,30.15,30.04,4,0,4,0.25
2014-8-9,81.5,71.8,64.4,74.0,68.9,63.2,98,91,73,30.11,30.01,11,1,11,0.23
2014-8-10,69.6,65.8,62.9,67.3,64.9,62.3,98,97,91,30.12,30.05,6,0,6,0.61
2014-8-11,83.6,72.2,66.6,73.8,69.4,66.1,99,92,66,30.09,29.94,4,0,6,0.43
2014-8-12,89.2,75.3,69.4,75.4,70.9,68.8,99,88,55,29.97,29.79,13,0,13,0.41
2014-8-13,79.8,71.1,61.1,69.2,61.5,56.0,97,74,48,30.04,29.87,13,1,13,0.00
2014-8-14,84.3,68.1,54.3,64.0,59.1,53.8,98,76,43,30.09,29.98,8,1,8,0.00
2014-8-15,87.8,71.9,58.6,66.2,61.9,55.9,99,74,39,30.07,29.96,9,1,9,0.00
2014-8-16,86.7,73.3,63.6,70.9,65.3,60.8,97,78,46,30.08,29.99,8,0,8,0.00
2014-8-17,89.0,75.8,65.0,71.4,67.1,62.4,96,77,44,30.06,29.96,8,0,8,0.00
2014-8-18,88.0,76.4,69.2,73.9,69.9,67.2,97,82,52,29.98,29.81,17,1,17,0.03
2014-8-19,89.7,77.5,66.7,71.3,68.5,64.7,98,76,45,29.94,29.83,10,1,10,0.00
2014-8-20,89.9,76.4,65.9,72.3,68.3,64.1,98,78,46,30.10,29.92,16,1,16,0.00
2014-8-21,91.0,78.4,64.7,73.6,67.6,62.0,94,71,48,30.14,30.02,7,0,7,0.00
2014-8-22,94.5,81.6,69.8,73.6,70.3,65.5,94,71,43,30.10,29.97,13,1,13,0.00
2014-8-23,92.0,78.6,69.1,74.2,70.0,67.0,94,77,48,30.01,29.91,10,1,10,0.00
2014-8-24,75.0,72.0,68.9,71.1,68.5,65.3,94,89,81,30.14,29.97,10,1,10,0.04
2014-8-25,81.4,71.5,61.3,66.2,61.3,56.7,95,73,46,30.17,30.08,10,1,10,0.00
2014-8-26,83.6,67.9,54.7,62.8,58.8,54.2,98,76,43,30.20,30.08,10,1,10,0.00
2014-8-27,88.8,69.8,54.5,63.3,56.2,45.9,98,69,25,30.15,30.01,11,1,11,0.00
2014-8-28,93.4,75.4,59.1,69.9,63.8,57.3,96,70,42,30.07,29.98,6,0,6,0.00
2014-8-29,72.7,69.0,67.2,69.5,67.5,66.1,98,95,89,30.14,30.05,3,0,3,0.00
2014-8-31,91.3,80.0,70.7,74.2,70.7,68.0,93,75,50,30.19,30.07,8,1,8,0.60
2014-9-1,91.6,75.7,68.0,73.9,69.4,63.3,98,83,43,30.14,30.06,16,1,16,0.04
2014-9-2,92.8,80.0,66.3,72.9,68.9,65.7,98,72,44,30.11,29.97,20,1,20,0.05
2014-9-3,83.6,72.0,65.0,70.3,67.4,64.1,98,86,63,30.14,30.00,9,1,10,0.07
2014-9-4,81.5,72.9,69.5,74.9,70.4,68.5,98,92,76,30.21,30.12,11,1,12,1.23
2014-9-5,86.8,73.6,68.4,75.7,70.5,68.0,99,91,62,30.24,30.10,6,0,7,0.00
2014-9-6,88.9,75.5,68.1,74.8,70.7,67.5,99,87,53,30.12,29.97,7,1,8,0.00
2014-9-7,85.2,74.6,67.0,71.5,68.5,66.5,99,83,57,30.11,30.00,10,1,10,0.58
2014-9-8,71.4,67.3,63.6,67.3,64.8,62.4,97,92,81,30.17,30.08,8,1,8,0.63
2014-9-9,77.8,70.3,63.8,68.7,66.1,62.9,98,87,69,30.17,30.08,7,0,8,0.00
2014-9-10,79.1,71.4,66.5,69.1,67.3,65.2,98,87,68,30.16,30.04,5,0,5,0.00
2014-9-11,88.1,74.0,64.8,74.9,69.3,64.2,98,87,59,30.07,29.97,10,1,10,0.00
2014-9-12,87.5,74.7,68.1,73.0,70.0,67.3,98,87,55,30.10,30.00,10,1,11,6.32
2014-9-13,84.1,72.7,66.2,72.4,68.3,62.5,98,87,61,30.19,30.05,8,1,10,1.32
2014-9-14,67.8,63.6,60.2,63.8,60.2,58.1,96,89,73,30.30,30.19,6,1,6,0.05
2014-9-15,74.9,67.9,63.3,67.6,64.3,61.5,98,88,76,30.24,30.12,7,0,7,0.31
2014-9-16,86.0,73.3,65.0,70.4,67.0,64.4,99,82,57,30.14,29.94,14,1,14,0.00
2014-9-17,74.0,67.0,60.0,66.3,62.7,59.2,98,87,71,30.02,29.93,6,1,9,0.00
2014-9-18,77.9,67.6,58.4,65.7,62.3,55.8,99,85,51,30.06,29.96,5,0,5,0.00
2014-9-19,77.6,67.4,61.9,66.4,62.4,56.5,98,86,54,30.25,30.05,13,1,13,0.00
2014-9-20,80.5,67.1,59.0,62.7,60.5,56.3,98,82,46,30.25,30.04,6,1,8,0.00
2014-9-21,86.0,68.7,54.5,70.0,61.8,54.2,99,81,47,30.07,29.83,12,1,12,0.02
2014-9-22,77.0,66.4,54.6,63.7,54.7,49.7,93,68,41,30.17,29.92,7,1,9,0.00
2014-9-23,60.8,56.6,52.2,53.9,52.0,50.5,96,85,73,30.33,30.17,6,0,6,0.00
2014-9-24,67.0,57.2,48.0,58.8,52.4,46.2,98,85,55,30.38,30.28,17,1,17,0.13
2014-9-25,75.5,65.1,59.7,66.0,61.8,58.8,98,90,70,30.28,30.17,9,1,9,0.15
2014-9-26,70.2,65.2,62.6,63.6,62.1,60.9,97,90,78,30.24,30.18,9,1,10,0.00
2014-9-27,77.0,64.9,56.1,62.4,59.1,55.3,99,84,54,30.25,30.16,9,1,9,0.00
2014-9-28,73.8,62.1,52.6,65.0,58.6,52.0,99,89,65,30.23,30.09,5,0,6,0.00
2014-9-29,69.8,64.5,60.7,65.9,62.9,60.1,99,95,84,30.10,29.97,3,0,3,0.19
2014-9-30,81.8,68.1,59.2,69.4,62.0,58.6,99,83,48,29.99,29.86,6,1,7,0.00
2014-10-1,83.2,67.1,54.4,65.6,59.4,54.0,99,80,39,30.06,29.93,7,0,8,0.00
2014-10-2,84.5,68.6,57.0,66.7,60.7,56.0,99,80,40,30.14,30.02,8,0,8,0.00
2014-10-3,75.5,66.2,58.9,68.9,63.3,57.6,98,91,76,30.05,29.77,10,1,11,0.31
2014-10-4,65.0,55.8,42.7,63.8,41.9,28.3,98,62,31,29.94,29.74,20,4,20,0.00
2014-10-5,66.4,49.8,36.5,43.1,38.2,32.7,95,69,33,30.02,29.90,9,1,9,0.00
2014-10-6,73.1,55.4,38.7,56.8,48.2,38.2,98,80,46,30.05,29.95,17,1,17,0.10
2014-10-7,72.0,62.9,55.0,61.0,57.1,54.2,98,83,60,30.12,29.96,11,1,11,0.18
2014-10-8,80.7,68.4,57.7,65.7,57.4,48.4,97,72,33,30.08,29.95,22,2,22,0.03
2014-10-9,80.5,63.9,51.7,62.7,56.0,50.6,97,78,42,30.19,30.07,10,1,10,0.00
2014-10-10,82.5,68.8,56.1,69.0,63.2,55.5,98,84,57,30.11,29.95,11,1,11,0.22
2014-10-11,78.0,67.6,62.8,70.2,65.6,62.5,99,94,72,30.06,29.93,16,0,16,0.41
2014-10-12,66.7,56.9,54.3,65.5,55.8,53.1,98,96,91,30.25,30.05,11,1,11,0.20
2014-10-13,63.7,59.1,55.2,63.2,58.6,54.8,99,98,96,30.26,30.10,5,0,5,0.23
2014-10-14,73.9,69.1,60.4,68.9,66.8,58.9,100,92,80,30.11,29.76,22,4,22,1.90
2014-10-15,71.9,60.0,52.4,60.0,54.9,49.6,99,85,46,29.87,29.77,12,1,12,0.07
2014-10-16,66.0,57.1,49.4,54.1,50.8,47.8,99,81,58,29.90,29.76,12,2,12,0.04
2014-10-17,74.7,58.0,43.9,56.4,50.4,43.4,98,79,45,29.94,29.80,9,1,9,0.00
2014-10-18,69.0,60.5,51.5,53.3,48.5,42.4,98,67,43,30.00,29.78,19,3,19,0.00
2014-10-19,73.3,55.7,42.8,48.1,43.1,37.9,94,66,30,30.13,30.00,16,1,16,0.00
2014-10-20,71.2,54.4,40.7,54.4,47.8,40.1,98,81,47,30.13,29.95,9,1,9,0.00
2014-10-21,68.9,57.1,46.3,53.5,46.1,37.5,98,70,41,30.01,29.87,18,3,18,0.01
2014-10-22,61.3,49.8,40.7,42.2,39.2,36.7,88,68,48,30.11,30.00,18,2,18,0.00
2014-10-23,69.0,51.4,38.1,46.0,40.2,36.5,95,70,33,30.10,29.97,10,1,10,0.00
2014-10-24,69.5,50.9,39.2,50.8,43.6,38.3,97,80,35,30.08,29.97,6,0,6,0.00
2014-10-25,76.0,54.8,35.9,53.0,42.2,34.7,98,70,24,30.05,29.91,10,1,10,0.00
2014-10-26,78.5,65.8,56.3,54.4,47.8,41.0,82,56,27,29.99,29.88,16,3,16,0.00
2014-10-27,80.2,59.9,44.4,53.1,48.2,43.1,96,69,32,30.14,29.98,6,1,6,0.00
2014-10-28,81.9,61.2,45.2,60.8,51.5,44.3,98,75,37,30.14,30.02,13,1,13,0.00
2014-10-29,72.0,60.0,49.5,58.2,52.0,40.3,95,76,59,30.04,29.91,10,1,10,0.00
2014-10-30,68.3,50.7,37.7,44.3,38.9,24.8,96,69,25,30.08,29.94,8,0,8,0.00
2014-10-31,58.6,46.7,37.6,46.6,41.8,36.3,97,84,61,29.97,29.76,8,1,2,0.02
2014-11-1,50.2,43.5,38.3,44.3,34.2,27.6,95,71,53,30.08,29.71,25,4,25,0.05
2014-11-2,52.2,41.2,33.0,27.7,24.2,17.4,73,52,26,30.32,30.07,22,4,22,0.00
2014-11-3,67.5,45.3,26.6,33.5,27.1,13.9,91,57,13,30.43,30.29,6,0,0,0.00
2014-11-4,53.7,45.7,37.5,40.2,36.0,32.2,83,69,56,30.32,30.21,2,0,2,0.00
2014-11-5,66.5,53.8,43.3,49.2,43.0,37.2,88,69,43,30.27,30.11,5,0,5,0.00
2014-11-6,70.4,60.4,46.7,58.9,48.0,28.6,89,65,34,30.11,29.73,26,4,26,0.00
2014-11-7,57.9,47.0,33.5,37.1,33.5,30.5,89,61,40,30.05,29.89,18,2,20,0.00
2014-11-8,58.5,41.3,28.6,38.7,33.9,27.4,97,77,45,30.08,29.91,6,0,20,0.00
2014-11-9,66.2,46.8,32.9,41.9,37.5,32.1,97,74,37,30.02,29.89,8,0,0,0.00
2014-11-10,66.7,47.6,32.1,46.7,39.1,31.4,98,76,40,30.10,30.00,12,0,0,0.00
2014-11-11,72.3,48.8,30.9,49.7,41.2,30.1,98,79,41,30.07,29.89,6,0,0,0.00
2014-11-12,72.2,55.6,40.0,54.3,47.3,38.7,97,76,50,30.01,29.93,9,0,5,0.00
2014-11-13,60.1,51.1,38.1,47.9,42.8,34.4,90,74,56,30.05,29.92,6,1,6,0.02
2014-11-14,41.6,33.6,21.4,35.7,22.0,14.8,94,64,38,30.31,30.03,12,1,12,0.05
2014-11-15,43.4,29.5,16.6,22.4,16.5,13.7,91,61,31,30.42,30.27,8,0,5,0.00
2014-11-16,53.6,41.9,29.9,39.6,27.1,20.8,87,58,35,30.31,29.99,6,0,6,0.01
2014-11-17,48.4,41.2,30.8,46.0,37.2,17.9,97,86,58,29.99,29.61,23,2,9,1.03
2014-11-18,33.6,27.2,22.1,18.9,10.7,5.5,64,50,38,30.26,29.92,23,5,23,0.00
2014-11-19,43.1,30.1,15.4,18.9,11.8,5.7,81,48,27,30.32,30.15,14,1,0,0.00
2014-11-20,58.0,38.9,23.8,31.3,22.7,16.4,83,56,22,30.16,30.00,17,2,0,0.00
2014-11-21,56.2,43.3,29.1,21.3,13.0,-7.9,62,33,8,30.48,30.14,15,2,0,0.00
2014-11-22,54.9,37.3,21.6,29.6,21.0,17.2,85,56,26,30.52,30.27,6,0,0,0.00
2014-11-23,46.0,42.4,40.3,45.5,37.9,28.6,98,85,61,30.27,29.69,22,0,22,3.01
2014-11-24,72.2,61.0,45.7,56.4,52.8,44.9,99,76,54,29.89,29.66,16,2,16,0.00
2014-11-25,58.6,52.0,45.3,53.8,40.4,30.8,97,67,36,30.07,29.88,6,0,6,0.02
2014-11-26,53.2,44.9,41.1,44.0,40.8,35.2,97,87,53,30.04,29.89,11,1,11,1.27
2014-11-27,46.9,39.8,32.3,40.8,31.6,20.7,97,73,54,30.28,29.92,19,4,19,0.01
2014-11-28,45.9,32.9,22.5,24.6,21.3,18.5,89,64,35,30.35,30.21,11,1,11,0.00
2014-11-29,55.3,38.1,25.9,31.9,27.5,23.0,93,69,34,30.25,30.14,7,0,3,0.00
2014-11-30,66.6,50.4,28.9,49.4,41.2,26.9,94,73,48,30.28,30.15,12,1,12,0.00
2014-12-1,73.0,55.3,39.1,52.6,47.4,38.1,98,78,44,30.35,30.22,9,1,9,0.00
2014-12-2,52.6,44.5,41.0,50.0,42.8,39.8,97,94,90,30.35,30.25,5,1,5,0.00
2014-12-3,60.1,52.7,41.0,53.5,47.5,40.0,97,83,61,30.32,30.15,6,1,6,0.01
2014-12-4,55.5,49.8,44.3,45.2,41.5,38.0,94,74,53,30.37,30.22,7,1,7,0.00
2014-12-5,48.4,46.4,43.0,44.3,42.6,40.2,94,87,77,30.45,30.31,3,0,3,0.01
2014-12-6,51.5,47.3,44.0,50.4,45.8,40.8,98,94,80,30.31,30.01,9,1,1,0.19
2014-12-7,53.7,44.8,35.9,41.0,30.0,18.9,91,60,29,30.41,30.15,11,2,11,0.00
2014-12-8,40.1,37.4,34.5,36.7,26.9,17.9,95,67,45,30.44,30.14,6,1,6,0.01
2014-12-9,51.1,39.9,31.4,40.8,33.4,30.2,98,79,51,30.14,29.94,17,2,17,0.01
2014-12-10,47.6,39.0,33.2,32.1,28.4,24.7,82,66,49,30.05,29.99,16,3,12,0.00
2014-12-11,49.0,36.7,29.2,24.8,21.4,17.1,74,56,29,30.14,29.96,11,1,9,0.00
2014-12-12,57.2,42.4,30.3,20.2,14.0,6.7,65,33,17,30.22,30.13,12,2,13,0.00
2014-12-13,64.9,46.5,28.0,24.2,18.4,12.4,74,36,13,30.15,30.03,9,1,13,0.00
2014-12-14,69.0,45.7,27.6,33.2,25.5,18.1,81,51,15,30.04,29.95,8,1,13,0.00
2014-12-15,57.7,39.8,25.9,37.0,31.3,24.1,95,74,44,30.11,30.00,6,0,0,0.00
2014-12-16,54.6,48.2,38.8,49.5,41.1,34.4,92,77,60,30.03,29.82,18,3,18,0.13
2014-12-17,57.9,47.9,37.3,37.7,33.0,21.6,76,58,31,30.12,30.01,17,2,17,0.00
2014-12-18,55.1,44.1,34.5,33.4,27.2,21.4,74,53,30,30.16,30.01,6,0,6,0.00
2014-12-19,53.9,41.8,29.1,35.4,31.4,26.5,92,69,44,30.17,30.05,6,0,6,0.00
2014-12-20,43.9,41.3,38.3,37.1,34.4,29.3,91,76,61,30.23,30.14,4,0,0,0.01
2014-12-21,44.4,42.4,40.3,39.4,38.3,36.5,91,85,81,30.26,30.16,6,0,0,0.00
2014-12-22,42.1,39.3,37.7,39.0,37.9,36.7,97,95,87,30.17,29.99,7,1,0,0.10
2014-12-23,42.8,40.5,37.4,42.3,39.7,36.6,98,97,96,30.04,29.88,5,0,0,0.42
2014-12-24,51.2,47.1,42.8,50.6,46.5,42.3,99,98,90,29.90,29.62,8,0,0,1.41
2014-12-25,52.4,44.4,30.4,47.8,34.1,28.5,94,68,43,30.24,29.68,20,3,15,0.01
2014-12-26,59.2,39.2,26.2,37.4,31.9,25.2,98,79,39,30.34,30.21,4,0,0,0.00
2014-12-27,64.1,46.5,33.4,43.2,37.2,32.0,96,74,34,30.29,30.14,5,0,0,0.00
2014-12-28,61.1,51.8,45.5,55.6,47.8,39.7,97,86,73,30.14,29.95,7,1,0,0.03
2014-12-29,55.9,51.9,41.6,53.5,50.8,40.3,98,96,89,30.14,30.00,7,0,0,0.74
2014-12-30,41.6,37.7,30.2,40.5,35.8,29.5,98,93,85,30.41,30.12,10,1,0,0.19
2014-12-31,46.5,34.3,28.1,31.7,27.9,21.0,98,80,47,30.42,30.30,6,0,0,0.01
2015-1-1,52.6,37.5,22.6,35.1,26.6,20.0,93,68,37,30.32,30.15,7,0,7,0.00
2015-1-2,54.5,46.5,39.5,43.4,39.4,32.8,89,77,63,30.33,30.17,4,0,4,0.00